Location: Casteau
(50.5142°N, 4.0161°E)
Time: 02:38:03
(UTC+00:00)

Spot 2 Rocket - Pass Details

Date: 18 September 2020
Orbit: 758 x 771 km, 98.6° (Epoch: 24 October)

Event Time Altitude Azimuth Distance (km) Brightness Sun altitude
Exits shadow 19:48:07 30° 83° (E) 1,339 4.3 -18.8°
Maximum altitude 19:49:01 32° 63° (ENE) 1,283 4.3 -19.0°
Drops below altitude 10° 19:53:28 10° 1° (N) 2,300 6.3 -19.6°
Sets 19:55:57 0° 352° (N) 3,231 7.3 -19.9°
